Time,TemperatureF,DewpointF,PressureIn,WindDirection,WindDirectionDegrees,WindSpeedMPH,WindSpeedGustMPH,Humidity,HourlyPrecipIn,Conditions,Clouds,dailyrainin,SoftwareType,DateUTC
2013-04-17 00:00:00,76.5,66.4,29.75,SSE,158,2.9,5.4,71,0.00,,,0.00,WUHU216HW,2013-04-17 05:00:00,
2013-04-17 00:05:00,76.3,66.2,29.75,ESE,113,1.1,5.4,71,0.00,,,0.00,WUHU216HW,2013-04-17 05:05:00,
2013-04-17 00:10:00,76.3,66.2,29.75,WSW,248,1.6,4.7,71,0.00,,,0.00,WUHU216HW,2013-04-17 05:10:00,
2013-04-17 00:15:00,76.1,66.1,29.76,SSE,158,1.8,5.4,71,0.00,,,0.00,WUHU216HW,2013-04-17 05:15:00,
2013-04-17 00:20:00,76.0,66.7,29.76,SSW,203,3.1,6.7,73,0.00,,,0.00,WUHU216HW,2013-04-17 05:20:00,
2013-04-17 00:25:00,76.0,66.7,29.76,SE,135,2.9,7.6,73,0.00,,,0.00,WUHU216HW,2013-04-17 05:25:00,
2013-04-17 00:30:00,76.0,66.7,29.76,South,180,2.9,7.6,73,0.00,,,0.00,WUHU216HW,2013-04-17 05:30:00,
2013-04-17 00:35:00,75.8,66.9,29.76,SSW,203,6.3,8.5,74,0.00,,,0.00,WUHU216HW,2013-04-17 05:35:00,
2013-04-17 00:40:00,75.8,66.5,29.76,SSE,158,3.4,8.5,73,0.00,,,0.00,WUHU216HW,2013-04-17 05:40:00,
2013-04-17 00:45:00,75.8,66.9,29.77,NNE,23,2.5,8.1,74,0.00,,,0.00,WUHU216HW,2013-04-17 05:45:00,
2013-04-17 00:50:00,75.8,66.9,29.77,SW,225,2.2,8.1,74,0.00,,,0.00,WUHU216HW,2013-04-17 05:50:00,
2013-04-17 00:55:00,75.6,66.7,29.77,South,180,2.2,8.1,74,0.00,,,0.00,WUHU216HW,2013-04-17 05:55:00,
2013-04-17 01:00:00,75.6,66.7,29.77,South,180,5.1,5.1,74,0.00,,,0.00,WUHU216HW,2013-04-17 06:00:00,
2013-04-17 01:05:00,75.4,66.6,29.77,SSW,203,1.6,8.9,74,0.00,,,0.00,WUHU216HW,2013-04-17 06:05:00,
2013-04-17 01:10:00,75.4,66.6,29.77,South,180,2.0,8.9,74,0.00,,,0.00,WUHU216HW,2013-04-17 06:10:00,
2013-04-17 01:15:00,75.2,66.8,29.77,SSE,158,1.3,5.1,75,0.00,,,0.00,WUHU216HW,2013-04-17 06:15:00,
2013-04-17 01:20:00,75.2,66.8,29.76,SW,225,1.1,5.1,75,0.00,,,0.00,WUHU216HW,2013-04-17 06:20:00,
2013-04-17 01:25:00,75.2,66.8,29.76,SSE,158,2.7,3.8,75,0.00,,,0.00,WUHU216HW,2013-04-17 06:25:00,
2013-04-17 01:30:00,75.1,66.6,29.76,East,90,2.5,5.4,75,0.00,,,0.00,WUHU216HW,2013-04-17 06:30:00,
2013-04-17 01:35:00,75.1,66.6,29.76,SSE,158,1.1,5.4,75,0.00,,,0.00,WUHU216HW,2013-04-17 06:35:00,
2013-04-17 01:40:00,74.9,66.4,29.76,SSE,158,6.9,7.6,75,0.00,,,0.00,WUHU216HW,2013-04-17 06:40:00,
2013-04-17 01:45:00,74.9,66.9,29.77,SE,135,2.2,7.6,76,0.00,,,0.00,WUHU216HW,2013-04-17 06:45:00,
2013-04-17 01:50:00,74.9,66.4,29.76,South,180,2.0,5.4,75,0.00,,,0.00,WUHU216HW,2013-04-17 06:50:00,
2013-04-17 01:55:00,74.9,66.9,29.76,SSE,158,4.5,5.6,76,0.00,,,0.00,WUHU216HW,2013-04-17 06:55:00,
2013-04-17 02:00:00,74.7,66.7,29.76,South,180,2.7,6.9,76,0.00,,,0.00,WUHU216HW,2013-04-17 07:00:00,
2013-04-17 02:05:00,74.7,66.7,29.76,South,180,3.6,6.9,76,0.00,,,0.00,WUHU216HW,2013-04-17 07:05:00,
2013-04-17 02:10:00,74.7,66.7,29.76,South,180,4.0,4.7,76,0.00,,,0.00,WUHU216HW,2013-04-17 07:10:00,
2013-04-17 02:15:00,74.7,66.7,29.76,SSE,158,2.0,4.7,76,0.00,,,0.00,WUHU216HW,2013-04-17 07:15:00,
2013-04-17 02:20:00,74.5,66.9,29.75,South,180,3.4,4.7,77,0.00,,,0.00,WUHU216HW,2013-04-17 07:20:00,
2013-04-17 02:25:00,74.5,66.9,29.76,South,180,2.5,6.0,77,0.00,,,0.00,WUHU216HW,2013-04-17 07:25:00,
2013-04-17 02:30:00,74.7,67.1,29.76,WSW,248,2.5,6.0,77,0.00,,,0.00,WUHU216HW,2013-04-17 07:30:00,
2013-04-17 02:35:00,74.7,67.1,29.76,SSW,203,4.0,4.0,77,0.00,,,0.00,WUHU216HW,2013-04-17 07:35:00,
2013-04-17 02:40:00,74.5,66.9,29.75,WSW,248,5.4,5.4,77,0.00,,,0.00,WUHU216HW,2013-04-17 07:40:00,
2013-04-17 02:45:00,74.7,67.1,29.75,South,180,4.3,5.4,77,0.00,,,0.00,WUHU216HW,2013-04-17 07:45:00,
2013-04-17 02:50:00,74.5,66.9,29.74,SSW,203,2.9,6.7,77,0.00,,,0.00,WUHU216HW,2013-04-17 07:50:00,
2013-04-17 02:55:00,74.5,67.2,29.74,ESE,113,2.0,6.7,78,0.00,,,0.00,WUHU216HW,2013-04-17 07:55:00,
2013-04-17 03:00:00,74.5,67.2,29.74,West,270,2.5,6.9,78,0.00,,,0.00,WUHU216HW,2013-04-17 08:00:00,
2013-04-17 03:05:00,74.5,67.2,29.74,ESE,113,3.4,8.1,78,0.00,,,0.00,WUHU216HW,2013-04-17 08:05:00,
2013-04-17 03:10:00,74.5,67.7,29.74,SW,225,4.7,8.1,79,0.00,,,0.00,WUHU216HW,2013-04-17 08:10:00,
2013-04-17 03:15:00,74.3,67.5,29.74,SSW,203,4.7,8.1,79,0.00,,,0.00,WUHU216HW,2013-04-17 08:15:00,
2013-04-17 03:20:00,74.3,67.5,29.74,ESE,113,1.1,7.8,79,0.00,,,0.00,WUHU216HW,2013-04-17 08:20:00,
2013-04-17 03:25:00,74.3,67.9,29.74,SSW,203,8.1,9.2,80,0.00,,,0.00,WUHU216HW,2013-04-17 08:25:00,
2013-04-17 03:30:00,74.3,67.9,29.74,SSW,203,2.5,9.2,80,0.00,,,0.00,WUHU216HW,2013-04-17 08:30:00,
2013-04-17 03:35:00,74.3,67.9,29.74,South,180,1.8,8.3,80,0.00,,,0.00,WUHU216HW,2013-04-17 08:35:00,
2013-04-17 03:40:00,74.3,67.9,29.74,SSE,158,3.4,6.0,80,0.00,,,0.00,WUHU216HW,2013-04-17 08:40:00,
2013-04-17 03:45:00,74.3,68.2,29.74,SSW,203,6.5,6.5,81,0.00,,,0.00,WUHU216HW,2013-04-17 08:45:00,
2013-04-17 03:50:00,74.3,68.2,29.73,South,180,4.3,6.5,81,0.00,,,0.00,WUHU216HW,2013-04-17 08:50:00,
2013-04-17 03:55:00,74.3,68.2,29.74,South,180,2.9,5.8,81,0.00,,,0.00,WUHU216HW,2013-04-17 08:55:00,
2013-04-17 04:00:00,74.3,68.2,29.74,SSE,158,4.0,5.8,81,0.00,,,0.00,WUHU216HW,2013-04-17 09:00:00,
2013-04-17 04:05:00,74.3,68.2,29.74,WSW,248,6.3,6.3,81,0.00,,,0.00,WUHU216HW,2013-04-17 09:05:00,
2013-04-17 04:10:00,74.3,68.2,29.73,SSW,203,1.3,6.3,81,0.00,,,0.00,WUHU216HW,2013-04-17 09:10:00,
2013-04-17 04:15:00,74.3,68.2,29.73,ESE,113,0.9,6.0,81,0.00,,,0.00,WUHU216HW,2013-04-17 09:15:00,
2013-04-17 04:20:00,74.3,68.2,29.74,SSW,203,1.8,1.8,81,0.00,,,0.00,WUHU216HW,2013-04-17 09:20:00,
2013-04-17 04:25:00,74.3,68.2,29.74,ESE,113,2.2,3.4,81,0.00,,,0.00,WUHU216HW,2013-04-17 09:25:00,
2013-04-17 04:30:00,74.3,68.2,29.74,SE,135,1.6,3.4,81,0.00,,,0.00,WUHU216HW,2013-04-17 09:30:00,
2013-04-17 04:35:00,74.2,68.1,29.73,SW,225,2.5,4.0,81,0.00,,,0.00,WUHU216HW,2013-04-17 09:35:00,
2013-04-17 04:40:00,74.2,68.4,29.73,SSW,203,4.3,4.3,82,0.00,,,0.00,WUHU216HW,2013-04-17 09:40:00,
2013-04-17 04:45:00,74.0,68.2,29.73,WSW,248,1.6,4.3,82,0.00,,,0.00,WUHU216HW,2013-04-17 09:45:00,
2013-04-17 04:50:00,74.2,68.4,29.73,SSW,203,3.4,3.8,82,0.00,,,0.00,WUHU216HW,2013-04-17 09:50:00,
2013-04-17 04:55:00,74.0,68.5,29.73,East,90,0.7,3.8,83,0.00,,,0.00,WUHU216HW,2013-04-17 09:55:00,
2013-04-17 05:00:00,74.0,68.5,29.73,SSE,158,1.8,4.7,83,0.00,,,0.00,WUHU216HW,2013-04-17 10:00:00,
2013-04-17 05:05:00,74.2,69.0,29.74,SW,225,2.2,4.7,84,0.00,,,0.00,WUHU216HW,2013-04-17 10:05:00,
2013-04-17 05:10:00,74.2,69.0,29.73,South,180,4.3,4.7,84,0.00,,,0.00,WUHU216HW,2013-04-17 10:10:00,
2013-04-17 05:15:00,74.2,69.0,29.73,West,270,3.4,4.7,84,0.00,,,0.00,WUHU216HW,2013-04-17 10:15:00,
2013-04-17 05:20:00,74.2,69.0,29.73,SE,135,1.1,4.0,84,0.00,,,0.00,WUHU216HW,2013-04-17 10:20:00,
2013-04-17 05:25:00,74.2,69.0,29.73,SW,225,1.1,3.1,84,0.00,,,0.00,WUHU216HW,2013-04-17 10:25:00,
2013-04-17 05:30:00,74.3,69.2,29.72,South,180,4.0,4.9,84,0.00,,,0.00,WUHU216HW,2013-04-17 10:30:00,
2013-04-17 05:35:00,74.3,69.2,29.72,ESE,113,4.5,4.9,84,0.00,,,0.00,WUHU216HW,2013-04-17 10:35:00,
2013-04-17 05:40:00,74.5,69.0,29.72,SSW,203,1.8,7.4,83,0.00,,,0.00,WUHU216HW,2013-04-17 10:40:00,
2013-04-17 05:45:00,74.5,69.0,29.72,SW,225,4.3,7.4,83,0.00,,,0.00,WUHU216HW,2013-04-17 10:45:00,
2013-04-17 05:50:00,74.5,69.0,29.72,SW,225,1.8,7.2,83,0.00,,,0.00,WUHU216HW,2013-04-17 10:50:00,
2013-04-17 05:55:00,74.7,69.2,29.72,South,180,2.5,4.7,83,0.00,,,0.00,WUHU216HW,2013-04-17 10:55:00,
2013-04-17 06:00:00,74.7,69.0,29.72,NNE,23,8.9,8.9,82,0.00,,,0.00,WUHU216HW,2013-04-17 11:00:00,
2013-04-17 06:05:00,74.9,69.1,29.72,SSE,158,2.9,8.9,82,0.00,,,0.00,WUHU216HW,2013-04-17 11:05:00,
2013-04-17 06:10:00,74.9,69.1,29.72,East,90,6.3,6.3,82,0.00,,,0.00,WUHU216HW,2013-04-17 11:10:00,
2013-04-17 06:15:00,74.9,69.1,29.72,SW,225,7.6,7.6,82,0.00,,,0.00,WUHU216HW,2013-04-17 11:15:00,
2013-04-17 06:20:00,74.9,69.1,29.73,SSW,203,2.7,7.6,82,0.00,,,0.00,WUHU216HW,2013-04-17 11:20:00,
2013-04-17 06:25:00,74.9,69.1,29.73,SW,225,4.3,5.8,82,0.00,,,0.00,WUHU216HW,2013-04-17 11:25:00,
2013-04-17 06:30:00,74.7,69.0,29.73,West,270,2.5,5.4,82,0.00,,,0.00,WUHU216HW,2013-04-17 11:30:00,
2013-04-17 06:35:00,74.7,69.0,29.73,South,180,11.9,11.9,82,0.00,,,0.00,WUHU216HW,2013-04-17 11:35:00,
2013-04-17 06:40:00,74.7,69.0,29.73,ESE,113,1.8,11.9,82,0.00,,,0.00,WUHU216HW,2013-04-17 11:40:00,
2013-04-17 06:45:00,74.7,69.0,29.73,SE,135,3.6,8.7,82,0.00,,,0.00,WUHU216HW,2013-04-17 11:45:00,
2013-04-17 06:50:00,74.7,69.0,29.73,SE,135,2.0,8.5,82,0.00,,,0.00,WUHU216HW,2013-04-17 11:50:00,
2013-04-17 06:55:00,74.7,69.0,29.73,West,270,1.8,8.5,82,0.00,,,0.00,WUHU216HW,2013-04-17 11:55:00,
2013-04-17 07:00:00,74.7,69.0,29.73,WSW,248,2.5,5.6,82,0.00,,,0.00,WUHU216HW,2013-04-17 12:00:00,
2013-04-17 07:05:00,74.5,68.8,29.73,North,0,2.5,5.8,82,0.00,,,0.00,WUHU216HW,2013-04-17 12:05:00,
2013-04-17 07:10:00,74.5,68.4,29.73,SSE,158,0.4,6.9,81,0.00,,,0.00,WUHU216HW,2013-04-17 12:10:00,
2013-04-17 07:15:00,74.5,68.4,29.73,SSW,203,1.3,6.9,81,0.00,,,0.00,WUHU216HW,2013-04-17 12:15:00,
2013-04-17 07:20:00,74.5,68.4,29.73,SW,225,2.2,5.6,81,0.00,,,0.00,WUHU216HW,2013-04-17 12:20:00,
2013-04-17 07:25:00,74.5,68.4,29.74,SSE,158,3.4,6.3,81,0.00,,,0.00,WUHU216HW,2013-04-17 12:25:00,
2013-04-17 07:30:00,74.7,68.6,29.74,South,180,4.0,6.3,81,0.00,,,0.00,WUHU216HW,2013-04-17 12:30:00,
2013-04-17 07:35:00,74.7,68.2,29.74,South,180,1.8,4.9,80,0.00,,,0.00,WUHU216HW,2013-04-17 12:35:00,
2013-04-17 07:40:00,74.9,68.4,29.74,SW,225,3.8,7.6,80,0.00,,,0.00,WUHU216HW,2013-04-17 12:40:00,
2013-04-17 07:45:00,74.9,68.4,29.74,ESE,113,6.9,7.6,80,0.00,,,0.00,WUHU216HW,2013-04-17 12:45:00,
2013-04-17 07:50:00,74.9,68.1,29.74,SW,225,4.9,6.9,79,0.00,,,0.00,WUHU216HW,2013-04-17 12:50:00,
2013-04-17 07:55:00,74.9,68.1,29.74,SW,225,2.7,8.7,79,0.00,,,0.00,WUHU216HW,2013-04-17 12:55:00,
2013-04-17 08:00:00,74.9,68.1,29.74,SW,225,3.6,8.7,79,0.00,,,0.00,WUHU216HW,2013-04-17 13:00:00,
2013-04-17 08:05:00,74.9,67.6,29.74,SSW,203,3.4,11.2,78,0.00,,,0.00,WUHU216HW,2013-04-17 13:05:00,
2013-04-17 08:10:00,74.9,67.6,29.74,NE,45,2.0,11.2,78,0.00,,,0.00,WUHU216HW,2013-04-17 13:10:00,
2013-04-17 08:15:00,74.9,67.6,29.74,West,270,4.5,7.4,78,0.00,,,0.00,WUHU216HW,2013-04-17 13:15:00,
2013-04-17 08:20:00,74.9,67.6,29.74,SW,225,6.7,8.9,78,0.00,,,0.00,WUHU216HW,2013-04-17 13:20:00,
2013-04-17 08:25:00,75.1,67.8,29.74,SE,135,1.6,8.9,78,0.00,,,0.00,WUHU216HW,2013-04-17 13:25:00,
2013-04-17 08:30:00,75.1,67.8,29.74,East,90,4.0,8.1,78,0.00,,,0.00,WUHU216HW,2013-04-17 13:30:00,
2013-04-17 08:35:00,75.2,68.0,29.74,SSW,203,1.8,8.7,78,0.00,,,0.00,WUHU216HW,2013-04-17 13:35:00,
2013-04-17 08:40:00,75.2,67.6,29.74,NW,315,2.7,8.7,77,0.00,,,0.00,WUHU216HW,2013-04-17 13:40:00,
2013-04-17 08:45:00,75.2,67.6,29.74,SW,225,5.6,7.4,77,0.00,,,0.00,WUHU216HW,2013-04-17 13:45:00,
2013-04-17 08:50:00,75.2,67.1,29.74,SE,135,4.0,6.7,76,0.00,,,0.00,WUHU216HW,2013-04-17 13:50:00,
2013-04-17 08:55:00,75.2,67.1,29.73,ESE,113,2.2,9.8,76,0.00,,,0.00,WUHU216HW,2013-04-17 13:55:00,
2013-04-17 09:00:00,75.2,67.1,29.73,ESE,113,1.8,9.8,76,0.00,,,0.00,WUHU216HW,2013-04-17 14:00:00,
2013-04-17 09:05:00,75.4,67.3,29.74,ESE,113,3.4,10.5,76,0.00,,,0.00,WUHU216HW,2013-04-17 14:05:00,
2013-04-17 09:10:00,75.4,67.3,29.74,SE,135,4.0,10.5,76,0.00,,,0.00,WUHU216HW,2013-04-17 14:10:00,
2013-04-17 09:15:00,75.4,67.3,29.73,South,180,4.3,9.4,76,0.00,,,0.00,WUHU216HW,2013-04-17 14:15:00,
2013-04-17 09:20:00,75.4,67.0,29.73,SSE,158,3.8,9.4,75,0.00,,,0.00,WUHU216HW,2013-04-17 14:20:00,
2013-04-17 09:25:00,75.4,67.0,29.73,SSE,158,4.0,10.5,75,0.00,,,0.00,WUHU216HW,2013-04-17 14:25:00,
2013-04-17 09:30:00,75.4,67.0,29.73,South,180,4.5,10.5,75,0.00,,,0.00,WUHU216HW,2013-04-17 14:30:00,
2013-04-17 09:35:00,75.4,67.0,29.73,ENE,68,3.6,9.8,75,0.00,,,0.00,WUHU216HW,2013-04-17 14:35:00,
2013-04-17 09:40:00,75.6,67.2,29.73,SSW,203,6.0,6.9,75,0.00,,,0.00,WUHU216HW,2013-04-17 14:40:00,
2013-04-17 09:45:00,75.8,67.3,29.73,ESE,113,5.8,9.2,75,0.00,,,0.00,WUHU216HW,2013-04-17 14:45:00,
2013-04-17 09:50:00,76.0,67.1,29.73,South,180,2.0,11.0,74,0.00,,,0.00,WUHU216HW,2013-04-17 14:50:00,
2013-04-17 09:55:00,76.1,67.2,29.73,SSE,158,4.7,11.0,74,0.00,,,0.00,WUHU216HW,2013-04-17 14:55:00,
2013-04-17 10:00:00,76.1,67.2,29.73,SW,225,2.7,9.2,74,0.00,,,0.00,WUHU216HW,2013-04-17 15:00:00,
2013-04-17 10:05:00,76.1,67.2,29.73,SE,135,3.4,4.0,74,0.00,,,0.00,WUHU216HW,2013-04-17 15:05:00,
2013-04-17 10:10:00,76.1,67.2,29.73,SE,135,4.5,7.4,74,0.00,,,0.00,WUHU216HW,2013-04-17 15:10:00,
2013-04-17 10:15:00,76.3,67.4,29.73,SW,225,5.8,7.4,74,0.00,,,0.00,WUHU216HW,2013-04-17 15:15:00,
2013-04-17 10:20:00,76.3,67.1,29.73,NW,315,3.4,9.2,73,0.00,,,0.00,WUHU216HW,2013-04-17 15:20:00,
2013-04-17 10:25:00,76.5,67.2,29.73,SE,135,4.7,9.6,73,0.00,,,0.00,WUHU216HW,2013-04-17 15:25:00,
2013-04-17 10:30:00,76.7,67.4,29.72,SSW,203,4.3,9.6,73,0.00,,,0.00,WUHU216HW,2013-04-17 15:30:00,
2013-04-17 10:35:00,76.9,67.1,29.72,SW,225,9.2,10.7,72,0.00,,,0.00,WUHU216HW,2013-04-17 15:35:00,
2013-04-17 10:40:00,77.0,67.0,29.72,ESE,113,7.4,10.7,71,0.00,,,0.00,WUHU216HW,2013-04-17 15:40:00,
2013-04-17 10:45:00,77.4,67.0,29.72,SW,225,8.3,8.3,70,0.00,,,0.00,WUHU216HW,2013-04-17 15:45:00,
2013-04-17 10:50:00,77.8,67.2,29.71,SSW,203,6.9,12.8,70,0.00,,,0.00,WUHU216HW,2013-04-17 15:50:00,
2013-04-17 10:55:00,78.1,67.6,29.72,SSW,203,4.7,12.8,70,0.00,,,0.00,WUHU216HW,2013-04-17 15:55:00,
2013-04-17 11:00:00,78.1,67.2,29.71,SSW,203,4.3,10.5,69,0.00,,,0.00,WUHU216HW,2013-04-17 16:00:00,
2013-04-17 11:05:00,78.3,66.9,29.71,SW,225,5.8,10.5,68,0.00,,,0.00,WUHU216HW,2013-04-17 16:05:00,
2013-04-17 11:10:00,78.3,66.9,29.71,SE,135,2.5,13.4,68,0.00,,,0.00,WUHU216HW,2013-04-17 16:10:00,
2013-04-17 11:15:00,78.7,67.2,29.70,ESE,113,5.1,13.4,68,0.00,,,0.00,WUHU216HW,2013-04-17 16:15:00,
2013-04-17 11:20:00,78.8,66.5,29.70,SSW,203,6.7,11.2,66,0.00,,,0.00,WUHU216HW,2013-04-17 16:20:00,
2013-04-17 11:25:00,79.2,67.2,29.70,South,180,6.7,9.8,67,0.00,,,0.00,WUHU216HW,2013-04-17 16:25:00,
2013-04-17 11:30:00,79.4,67.4,29.70,SW,225,9.2,9.2,67,0.00,,,0.00,WUHU216HW,2013-04-17 16:30:00,
2013-04-17 11:35:00,79.7,66.9,29.70,SSW,203,8.5,9.8,65,0.00,,,0.00,WUHU216HW,2013-04-17 16:35:00,
2013-04-17 11:40:00,79.9,66.6,29.70,SSE,158,14.3,14.3,64,0.00,,,0.00,WUHU216HW,2013-04-17 16:40:00,
2013-04-17 11:45:00,79.9,66.6,29.70,WSW,248,2.9,14.3,64,0.00,,,0.00,WUHU216HW,2013-04-17 16:45:00,
2013-04-17 11:50:00,80.3,67.4,29.69,SE,135,3.1,8.1,65,0.00,,,0.00,WUHU216HW,2013-04-17 16:50:00,
2013-04-17 11:55:00,80.5,66.7,29.69,ENE,68,5.6,10.3,63,0.00,,,0.00,WUHU216HW,2013-04-17 16:55:00,
2013-04-17 12:00:00,80.8,67.1,29.69,SSW,203,8.9,10.3,63,0.00,,,0.00,WUHU216HW,2013-04-17 17:00:00,
2013-04-17 12:05:00,81.0,67.2,29.69,SSW,203,4.0,10.1,63,0.00,,,0.00,WUHU216HW,2013-04-17 17:05:00,
2013-04-17 12:10:00,81.4,67.1,29.68,South,180,5.6,8.5,62,0.00,,,0.00,WUHU216HW,2013-04-17 17:10:00,
2013-04-17 12:15:00,81.5,66.8,29.68,SE,135,3.4,10.7,61,0.00,,,0.00,WUHU216HW,2013-04-17 17:15:00,
2013-04-17 12:20:00,81.7,67.0,29.68,ENE,68,2.7,10.7,61,0.00,,,0.00,WUHU216HW,2013-04-17 17:20:00,
2013-04-17 12:24:00,82.1,66.8,29.68,SSE,158,3.1,11.4,60,0.00,,,0.00,WUHU216HW,2013-04-17 17:24:00,
2013-04-17 12:29:00,82.4,67.1,29.67,SE,135,6.3,11.4,60,0.00,,,0.00,WUHU216HW,2013-04-17 17:29:00,
2013-04-17 12:34:00,82.4,66.6,29.67,South,180,11.6,11.6,59,0.00,,,0.00,WUHU216HW,2013-04-17 17:34:00,
2013-04-17 12:39:00,82.6,67.3,29.67,SE,135,3.4,13.2,60,0.00,,,0.00,WUHU216HW,2013-04-17 17:39:00,
2013-04-17 12:44:00,82.8,67.0,29.67,SSW,203,2.5,13.2,59,0.00,,,0.00,WUHU216HW,2013-04-17 17:44:00,
2013-04-17 12:49:00,82.8,66.4,29.67,SSW,203,7.4,9.8,58,0.00,,,0.00,WUHU216HW,2013-04-17 17:49:00,
2013-04-17 12:54:00,82.8,67.0,29.66,ENE,68,7.6,11.6,59,0.00,,,0.00,WUHU216HW,2013-04-17 17:54:00,
2013-04-17 12:59:00,83.2,67.3,29.66,WSW,248,12.1,12.1,59,0.00,,,0.00,WUHU216HW,2013-04-17 17:59:00,
2013-04-17 13:04:00,83.2,66.8,29.65,SSW,203,3.8,12.1,58,0.00,,,0.00,WUHU216HW,2013-04-17 18:04:00,
2013-04-17 13:09:00,83.2,67.3,29.65,SSE,158,4.7,6.7,59,0.00,,,0.00,WUHU216HW,2013-04-17 18:09:00,
2013-04-17 13:14:00,83.5,67.7,29.65,West,270,5.6,8.3,59,0.00,,,0.00,WUHU216HW,2013-04-17 18:14:00,
2013-04-17 13:19:00,83.9,67.5,29.65,WSW,248,3.4,13.4,58,0.00,,,0.00,WUHU216HW,2013-04-17 18:19:00,
2013-04-17 13:24:00,84.1,67.2,29.64,SW,225,12.5,13.4,57,0.00,,,0.00,WUHU216HW,2013-04-17 18:24:00,
2013-04-17 13:29:00,84.2,67.4,29.64,WSW,248,6.0,12.5,57,0.00,,,0.00,WUHU216HW,2013-04-17 18:29:00,
2013-04-17 13:34:00,84.6,67.1,29.64,WSW,248,4.0,11.2,56,0.00,,,0.00,WUHU216HW,2013-04-17 18:34:00,
2013-04-17 13:39:00,84.8,67.3,29.64,SSE,158,13.6,13.6,56,0.00,,,0.00,WUHU216HW,2013-04-17 18:39:00,
2013-04-17 13:44:00,84.6,67.7,29.63,South,180,4.0,13.6,57,0.00,,,0.00,WUHU216HW,2013-04-17 18:44:00,
2013-04-17 13:49:00,84.6,67.7,29.63,South,180,4.9,8.5,57,0.00,,,0.00,WUHU216HW,2013-04-17 18:49:00,
2013-04-17 13:54:00,84.6,67.1,29.63,WSW,248,4.5,9.6,56,0.00,,,0.00,WUHU216HW,2013-04-17 18:54:00,
2013-04-17 13:59:00,84.6,67.1,29.63,SSW,203,6.3,11.9,56,0.00,,,0.00,WUHU216HW,2013-04-17 18:59:00,
2013-04-17 14:04:00,84.8,66.8,29.63,SSW,203,7.8,13.2,55,0.00,,,0.00,WUHU216HW,2013-04-17 19:04:00,
2013-04-17 14:09:00,85.0,67.5,29.63,SE,135,5.4,13.2,56,0.00,,,0.00,WUHU216HW,2013-04-17 19:09:00,
2013-04-17 14:14:00,85.0,67.0,29.62,SSE,158,4.3,12.5,55,0.00,,,0.00,WUHU216HW,2013-04-17 19:14:00,
2013-04-17 14:19:00,84.8,67.3,29.62,SSW,203,6.9,12.5,56,0.00,,,0.00,WUHU216HW,2013-04-17 19:19:00,
2013-04-17 14:24:00,85.1,67.7,29.62,SW,225,4.7,8.9,56,0.00,,,0.00,WUHU216HW,2013-04-17 19:24:00,
2013-04-17 14:29:00,85.3,67.9,29.62,WSW,248,7.6,8.9,56,0.00,,,0.00,WUHU216HW,2013-04-17 19:29:00,
2013-04-17 14:35:00,85.1,67.1,29.61,SE,135,2.2,8.9,55,0.00,,,0.00,WUHU216HW,2013-04-17 19:35:00,
2013-04-17 14:40:00,85.3,67.3,29.62,SSE,158,7.6,8.5,55,0.00,,,0.00,WUHU216HW,2013-04-17 19:40:00,
2013-04-17 14:45:00,85.7,67.6,29.61,SW,225,3.4,9.6,55,0.00,,,0.00,WUHU216HW,2013-04-17 19:45:00,
2013-04-17 14:50:00,85.5,67.0,29.61,SSW,203,4.7,9.6,54,0.00,,,0.00,WUHU216HW,2013-04-17 19:50:00,
2013-04-17 14:55:00,85.3,66.8,29.61,ENE,68,3.4,9.2,54,0.00,,,0.00,WUHU216HW,2013-04-17 19:55:00,
2013-04-17 15:00:00,85.1,66.6,29.61,ESE,113,5.8,7.4,54,0.00,,,0.00,WUHU216HW,2013-04-17 20:00:00,
2013-04-17 15:05:00,85.0,67.0,29.60,WSW,248,8.9,11.9,55,0.00,,,0.00,WUHU216HW,2013-04-17 20:05:00,
2013-04-17 15:10:00,85.0,67.5,29.60,SSE,158,4.7,11.9,56,0.00,,,0.00,WUHU216HW,2013-04-17 20:10:00,
2013-04-17 15:15:00,85.0,67.0,29.60,ESE,113,2.5,8.9,55,0.00,,,0.00,WUHU216HW,2013-04-17 20:15:00,
2013-04-17 15:20:00,85.0,67.5,29.60,South,180,3.6,10.1,56,0.00,,,0.00,WUHU216HW,2013-04-17 20:20:00,
2013-04-17 15:25:00,84.8,67.3,29.60,SW,225,3.4,10.1,56,0.00,,,0.00,WUHU216HW,2013-04-17 20:25:00,
2013-04-17 15:30:00,85.0,67.5,29.60,SW,225,4.5,8.5,56,0.00,,,0.00,WUHU216HW,2013-04-17 20:30:00,
2013-04-17 15:35:00,85.1,67.7,29.59,South,180,7.4,7.6,56,0.00,,,0.00,WUHU216HW,2013-04-17 20:35:00,
2013-04-17 15:40:00,85.1,67.1,29.58,SE,135,6.5,7.4,55,0.00,,,0.00,WUHU216HW,2013-04-17 20:40:00,
2013-04-17 15:45:00,85.3,67.9,29.58,South,180,3.8,6.5,56,0.00,,,0.00,WUHU216HW,2013-04-17 20:45:00,
2013-04-17 15:50:00,85.3,67.9,29.58,SE,135,6.3,8.3,56,0.00,,,0.00,WUHU216HW,2013-04-17 20:50:00,
2013-04-17 15:55:00,85.3,67.3,29.58,SSW,203,3.8,9.8,55,0.00,,,0.00,WUHU216HW,2013-04-17 20:55:00,
2013-04-17 16:00:00,85.3,67.9,29.58,South,180,4.7,9.8,56,0.00,,,0.00,WUHU216HW,2013-04-17 21:00:00,
2013-04-17 16:05:00,85.1,67.7,29.57,SW,225,3.8,6.5,56,0.00,,,0.00,WUHU216HW,2013-04-17 21:05:00,
2013-04-17 16:10:00,84.8,66.8,29.57,East,90,10.5,10.5,55,0.00,,,0.00,WUHU216HW,2013-04-17 21:10:00,
2013-04-17 16:15:00,84.6,67.1,29.57,ESE,113,2.5,10.5,56,0.00,,,0.00,WUHU216HW,2013-04-17 21:15:00,
2013-04-17 16:20:00,84.6,67.7,29.58,WSW,248,8.3,8.3,57,0.00,,,0.00,WUHU216HW,2013-04-17 21:20:00,
2013-04-17 16:25:00,84.8,67.3,29.57,SE,135,9.6,9.6,56,0.00,,,0.00,WUHU216HW,2013-04-17 21:25:00,
2013-04-17 16:30:00,84.6,67.1,29.57,South,180,5.4,9.6,56,0.00,,,0.00,WUHU216HW,2013-04-17 21:30:00,
2013-04-17 16:35:00,84.4,67.1,29.57,SSW,203,6.0,7.2,56,0.00,,,0.00,WUHU216HW,2013-04-17 21:35:00,
2013-04-17 16:40:00,84.4,67.1,29.57,SE,135,6.0,8.3,56,0.00,,,0.00,WUHU216HW,2013-04-17 21:40:00,
2013-04-17 16:45:00,84.2,66.9,29.57,SW,225,4.5,9.2,56,0.00,,,0.00,WUHU216HW,2013-04-17 21:45:00,
2013-04-17 16:50:00,84.1,66.7,29.57,South,180,8.1,9.2,56,0.00,,,0.00,WUHU216HW,2013-04-17 21:50:00,
2013-04-17 16:55:00,83.9,67.1,29.56,SSW,203,2.2,9.2,57,0.00,,,0.00,WUHU216HW,2013-04-17 21:55:00,
2013-04-17 17:00:00,83.9,67.1,29.56,SW,225,1.8,9.2,57,0.00,,,0.00,WUHU216HW,2013-04-17 22:00:00,
2013-04-17 17:05:00,83.9,67.1,29.56,SSW,203,8.1,9.2,57,0.00,,,0.00,WUHU216HW,2013-04-17 22:05:00,
2013-04-17 17:10:00,83.7,66.9,29.56,South,180,4.7,10.3,57,0.00,,,0.00,WUHU216HW,2013-04-17 22:10:00,
2013-04-17 17:15:00,83.7,66.9,29.56,South,180,4.7,12.3,57,0.00,,,0.00,WUHU216HW,2013-04-17 22:15:00,
2013-04-17 17:20:00,83.7,66.9,29.55,SSE,158,3.8,12.3,57,0.00,,,0.00,WUHU216HW,2013-04-17 22:20:00,
2013-04-17 17:25:00,83.5,67.1,29.55,SSE,158,7.4,7.4,58,0.00,,,0.00,WUHU216HW,2013-04-17 22:25:00,
2013-04-17 17:30:00,83.5,67.1,29.55,ESE,113,7.6,9.6,58,0.00,,,0.00,WUHU216HW,2013-04-17 22:30:00,
2013-04-17 17:35:00,83.5,67.1,29.55,South,180,7.8,9.6,58,0.00,,,0.00,WUHU216HW,2013-04-17 22:35:00,
2013-04-17 17:40:00,83.5,67.1,29.55,East,90,5.4,7.8,58,0.00,,,0.00,WUHU216HW,2013-04-17 22:40:00,
2013-04-17 17:45:00,83.3,66.5,29.55,SSW,203,8.7,9.8,57,0.00,,,0.00,WUHU216HW,2013-04-17 22:45:00,
2013-04-17 17:50:00,83.2,66.3,29.55,SSE,158,8.9,13.0,57,0.00,,,0.00,WUHU216HW,2013-04-17 22:50:00,
2013-04-17 17:55:00,83.2,66.3,29.55,SE,135,2.5,13.0,57,0.00,,,0.00,WUHU216HW,2013-04-17 22:55:00,
2013-04-17 18:00:00,83.2,66.8,29.54,West,270,8.9,8.9,58,0.00,,,0.00,WUHU216HW,2013-04-17 23:00:00,
2013-04-17 18:05:00,83.2,66.3,29.55,South,180,7.4,8.9,57,0.00,,,0.00,WUHU216HW,2013-04-17 23:05:00,
2013-04-17 18:10:00,83.0,66.6,29.55,SSW,203,5.8,9.8,58,0.00,,,0.00,WUHU216HW,2013-04-17 23:10:00,
2013-04-17 18:15:00,83.0,66.6,29.55,WSW,248,10.5,13.2,58,0.00,,,0.00,WUHU216HW,2013-04-17 23:15:00,
2013-04-17 18:20:00,82.8,66.4,29.55,SSW,203,4.3,13.2,58,0.00,,,0.00,WUHU216HW,2013-04-17 23:20:00,
2013-04-17 18:25:00,82.8,66.4,29.55,SSE,158,7.6,9.2,58,0.00,,,0.00,WUHU216HW,2013-04-17 23:25:00,
2013-04-17 18:30:00,82.6,66.2,29.54,South,180,9.8,10.3,58,0.00,,,0.00,WUHU216HW,2013-04-17 23:30:00,
2013-04-17 18:35:00,82.4,66.1,29.54,SE,135,2.7,10.3,58,0.00,,,0.00,WUHU216HW,2013-04-17 23:35:00,
2013-04-17 18:40:00,82.4,66.1,29.53,SE,135,4.7,14.3,58,0.00,,,0.00,WUHU216HW,2013-04-17 23:40:00,
2013-04-17 18:45:00,82.4,66.1,29.54,ESE,113,5.1,14.3,58,0.00,,,0.00,WUHU216HW,2013-04-17 23:45:00,
2013-04-17 18:50:00,82.4,66.6,29.53,South,180,2.7,12.3,59,0.00,,,0.00,WUHU216HW,2013-04-17 23:50:00,
2013-04-17 18:55:00,82.3,66.4,29.53,SSW,203,9.4,9.4,59,0.00,,,0.00,WUHU216HW,2013-04-17 23:55:00,
2013-04-17 19:00:00,82.1,66.3,29.53,ENE,68,5.8,9.4,59,0.00,,,0.00,WUHU216HW,2013-04-18 00:00:00,
2013-04-17 19:05:00,82.1,66.3,29.53,SSW,203,7.6,9.8,59,0.00,,,0.00,WUHU216HW,2013-04-18 00:05:00,
2013-04-17 19:10:00,81.9,66.7,29.53,SSE,158,9.6,9.8,60,0.00,,,0.00,WUHU216HW,2013-04-18 00:10:00,
2013-04-17 19:15:00,81.9,66.7,29.53,ESE,113,3.8,9.6,60,0.00,,,0.00,WUHU216HW,2013-04-18 00:15:00,
2013-04-17 19:20:00,81.7,66.5,29.53,WNW,293,8.7,8.7,60,0.00,,,0.00,WUHU216HW,2013-04-18 00:20:00,
2013-04-17 19:25:00,81.7,66.5,29.52,East,90,2.0,8.7,60,0.00,,,0.00,WUHU216HW,2013-04-18 00:25:00,
2013-04-17 19:30:00,81.5,66.3,29.52,SSW,203,7.8,7.8,60,0.00,,,0.00,WUHU216HW,2013-04-18 00:30:00,
2013-04-17 19:35:00,81.5,66.3,29.52,West,270,1.3,9.8,60,0.00,,,0.00,WUHU216HW,2013-04-18 00:35:00,
2013-04-17 19:40:00,81.4,66.2,29.52,SW,225,5.6,9.8,60,0.00,,,0.00,WUHU216HW,2013-04-18 00:40:00,
2013-04-17 19:45:00,81.4,66.6,29.52,SE,135,5.1,5.6,61,0.00,,,0.00,WUHU216HW,2013-04-18 00:45:00,
2013-04-17 19:50:00,81.4,66.6,29.52,SW,225,5.4,5.4,61,0.00,,,0.00,WUHU216HW,2013-04-18 00:50:00,
2013-04-17 19:55:00,81.2,66.4,29.52,South,180,9.2,11.0,61,0.00,,,0.00,WUHU216HW,2013-04-18 00:55:00,
2013-04-17 20:00:00,81.0,66.3,29.52,SSE,158,9.8,11.4,61,0.00,,,0.00,WUHU216HW,2013-04-18 01:00:00,
2013-04-17 20:05:00,81.0,65.9,29.52,SSW,203,8.1,11.4,60,0.00,,,0.00,WUHU216HW,2013-04-18 01:05:00,
2013-04-17 20:10:00,80.8,65.7,29.52,SW,225,2.7,8.9,60,0.00,,,0.00,WUHU216HW,2013-04-18 01:10:00,
2013-04-17 20:15:00,80.8,65.7,29.52,South,180,4.0,8.5,60,0.00,,,0.00,WUHU216HW,2013-04-18 01:15:00,
2013-04-17 20:20:00,80.6,66.0,29.52,SW,225,5.4,8.5,61,0.00,,,0.00,WUHU216HW,2013-04-18 01:20:00,
2013-04-17 20:25:00,80.6,66.0,29.51,SSW,203,3.4,10.7,61,0.00,,,0.00,WUHU216HW,2013-04-18 01:25:00,
2013-04-17 20:30:00,80.5,65.8,29.51,SSW,203,5.4,10.7,61,0.00,,,0.00,WUHU216HW,2013-04-18 01:30:00,
2013-04-17 20:35:00,80.5,65.8,29.50,ESE,113,2.9,10.5,61,0.00,,,0.00,WUHU216HW,2013-04-18 01:35:00,
2013-04-17 20:40:00,80.3,65.6,29.50,South,180,9.4,10.5,61,0.00,,,0.00,WUHU216HW,2013-04-18 01:40:00,
2013-04-17 20:45:00,80.3,66.1,29.50,West,270,2.2,9.8,62,0.00,,,0.00,WUHU216HW,2013-04-18 01:45:00,
2013-04-17 20:50:00,80.1,65.9,29.50,SW,225,4.9,9.8,62,0.00,,,0.00,WUHU216HW,2013-04-18 01:50:00,
2013-04-17 20:55:00,79.9,66.3,29.50,SSE,158,3.4,10.3,63,0.00,,,0.00,WUHU216HW,2013-04-18 01:55:00,
2013-04-17 21:00:00,79.9,66.6,29.50,SE,135,3.1,10.3,64,0.00,,,0.00,WUHU216HW,2013-04-18 02:00:00,
2013-04-17 21:05:00,79.7,66.5,29.50,ESE,113,8.3,11.4,64,0.00,,,0.00,WUHU216HW,2013-04-18 02:05:00,
2013-04-17 21:10:00,79.7,66.5,29.50,SSE,158,7.2,11.4,64,0.00,,,0.00,WUHU216HW,2013-04-18 02:10:00,
2013-04-17 21:15:00,79.6,66.8,29.51,SE,135,9.2,11.0,65,0.00,,,0.00,WUHU216HW,2013-04-18 02:15:00,
2013-04-17 21:20:00,79.6,66.8,29.51,SW,225,3.6,11.0,65,0.00,,,0.00,WUHU216HW,2013-04-18 02:20:00,
2013-04-17 21:25:00,79.4,67.1,29.51,South,180,5.8,9.8,66,0.00,,,0.00,WUHU216HW,2013-04-18 02:25:00,
2013-04-17 21:30:00,79.4,67.1,29.51,South,180,5.8,6.9,66,0.00,,,0.00,WUHU216HW,2013-04-18 02:30:00,
2013-04-17 21:35:00,79.2,67.2,29.51,SSW,203,5.1,9.4,67,0.00,,,0.00,WUHU216HW,2013-04-18 02:35:00,
2013-04-17 21:40:00,79.2,67.2,29.51,South,180,3.8,10.7,67,0.00,,,0.00,WUHU216HW,2013-04-18 02:40:00,
2013-04-17 21:45:00,79.0,67.5,29.51,SSE,158,4.3,10.7,68,0.00,,,0.00,WUHU216HW,2013-04-18 02:45:00,
2013-04-17 21:50:00,79.0,68.0,29.51,ESE,113,3.6,10.1,69,0.00,,,0.00,WUHU216HW,2013-04-18 02:50:00,
2013-04-17 21:55:00,78.8,67.8,29.52,ESE,113,7.6,10.1,69,0.00,,,0.00,WUHU216HW,2013-04-18 02:55:00,
2013-04-17 22:00:00,78.8,68.2,29.52,East,90,3.8,8.9,70,0.00,,,0.00,WUHU216HW,2013-04-18 03:00:00,
2013-04-17 22:05:00,78.8,68.2,29.52,ESE,113,7.2,9.4,70,0.00,,,0.00,WUHU216HW,2013-04-18 03:05:00,
2013-04-17 22:10:00,78.7,68.0,29.52,SSE,158,3.8,9.4,70,0.00,,,0.00,WUHU216HW,2013-04-18 03:10:00,
2013-04-17 22:15:00,78.5,68.3,29.52,South,180,8.1,8.3,71,0.00,,,0.00,WUHU216HW,2013-04-18 03:15:00,
2013-04-17 22:20:00,78.5,68.3,29.51,South,180,7.6,14.3,71,0.00,,,0.00,WUHU216HW,2013-04-18 03:20:00,
2013-04-17 22:25:00,78.5,68.3,29.51,SSW,203,4.7,14.3,71,0.00,,,0.00,WUHU216HW,2013-04-18 03:25:00,
2013-04-17 22:30:00,78.3,68.5,29.51,ENE,68,4.0,6.3,72,0.00,,,0.00,WUHU216HW,2013-04-18 03:30:00,
2013-04-17 22:35:00,78.3,68.5,29.52,SSW,203,12.5,12.5,72,0.00,,,0.00,WUHU216HW,2013-04-18 03:35:00,
2013-04-17 22:40:00,78.1,68.8,29.52,SSW,203,11.4,12.5,73,0.00,,,0.00,WUHU216HW,2013-04-18 03:40:00,
2013-04-17 22:45:00,78.1,68.8,29.52,SSE,158,12.3,12.3,73,0.00,,,0.00,WUHU216HW,2013-04-18 03:45:00,
2013-04-17 22:50:00,78.1,68.8,29.52,SSE,158,6.9,12.3,73,0.00,,,0.00,WUHU216HW,2013-04-18 03:50:00,
2013-04-17 22:55:00,77.9,68.6,29.52,SSW,203,7.6,12.1,73,0.00,,,0.00,WUHU216HW,2013-04-18 03:55:00,
2013-04-17 23:00:00,77.9,68.6,29.51,SSE,158,6.7,7.8,73,0.00,,,0.00,WUHU216HW,2013-04-18 04:00:00,
2013-04-17 23:01:00,77.9,68.9,29.51,South,180,6.9,7.8,74,0.00,,,0.00,WUHU216HW,2013-04-18 04:01:00,
2013-04-17 23:06:00,77.8,68.8,29.51,SE,135,6.3,10.5,74,0.00,,,0.00,WUHU216HW,2013-04-18 04:06:00,
2013-04-17 23:11:00,77.8,68.8,29.51,SE,135,4.0,10.5,74,0.00,,,0.00,WUHU216HW,2013-04-18 04:11:00,
2013-04-17 23:16:00,77.8,68.8,29.50,WSW,248,7.8,10.5,74,0.00,,,0.00,WUHU216HW,2013-04-18 04:16:00,
2013-04-17 23:21:00,77.6,69.0,29.50,NNW,338,4.5,11.2,75,0.00,,,0.00,WUHU216HW,2013-04-18 04:21:00,
2013-04-17 23:26:00,77.6,69.0,29.50,ESE,113,2.7,12.8,75,0.00,,,0.00,WUHU216HW,2013-04-18 04:26:00,
2013-04-17 23:31:00,77.4,68.9,29.50,WSW,248,8.1,12.8,75,0.00,,,0.00,WUHU216HW,2013-04-18 04:31:00,
2013-04-17 23:36:00,77.4,68.9,29.50,SSW,203,6.7,12.1,75,0.00,,,0.00,WUHU216HW,2013-04-18 04:36:00,
2013-04-17 23:41:00,77.4,68.9,29.51,SE,135,8.9,12.1,75,0.00,,,0.00,WUHU216HW,2013-04-18 04:41:00,
2013-04-17 23:46:00,77.4,68.9,29.51,East,90,3.4,11.9,75,0.00,,,0.00,WUHU216HW,2013-04-18 04:46:00,
2013-04-17 23:52:00,77.4,68.9,29.51,SSE,158,3.4,12.3,75,0.00,,,0.00,WUHU216HW,2013-04-18 04:52:00,
2013-04-17 23:56:00,77.4,68.9,29.51,South,180,6.5,12.3,75,0.00,,,0.00,WUHU216HW,2013-04-18 04:56:00,